Find Starlink 32424

NORAD ID: 61548 Int'l Des: 2024-184 Owner: SPXS Country: US Constellation: starlink operational
LEOCIRCULAR

Current View

Loading 3D Globe...

About Starlink 32424

Starlink 32424 (NORAD 61548) is a starlink constellation satellite (v2 mini) launched Oct 15, 2024 by SPXS of US. It operates in LEO, CIRCULAR orbit with a mass of 730.00 kg.

Upcoming Passes

Passes for default location (London). Set your location on the main map for personalized predictions.

Altitude History

Loading altitude history...

Two-Line Element Set

1 61548U 24184S 26237.20357827 -.00002722 00000-0 -69517-4 0 9994
2 61548 53.1568 308.6334 0001587 95.9495 264.1689 15.34373717104342
Epoch: Aug 25, 2026 • Age: 11 hours

Current Status

Altitude 464.9 km
Apogee / Perigee N/A
Velocity 7.63 km/s
Sub-Earth Point -5.61°S, 91.41°E
Launch Date Oct 15, 2024
Age 1.8 years
Type internet

Technical Details

Classification Payload
Mass 730.00 kg
Dry Mass 700.00 kg
Total Mass 730.00 kg
Length 0.30 m
Diameter 4.10 m
Span 29.00 m
Shape Box + pan
Manufacturer SPXS
Bus Type Starlink V2M
Phase Status In Orbit
Owner/State SPXS/US

Most Searched